www.pogodaiklimat.ru

Погода и климат >> Архив погоды >> Россия >> город Санкт-Петербург >> Санкт-Петербург


АРХИВ ПОГОДЫ в Санкт-Петербурге

Время (UTC), дата Ветер
(напр.,м/с)
 
Видим.   Явления Облачность Т
(С)
Тd
(С)
f
(%)
Тe
(С)
Тes
(С)
Комфортность P
(гПа)
Po
(гПа)
Тmin
(С)
Tmax
(С)
R
(мм)
R24
(мм)
S
(см)
00 17.10 З 3 10 км ясно +8.2 +4.3 76 +6 +6 по сезону 1008.5 1007.8
03 17.10 З 4
{10}
10 км ясно +8.2 +4.1 75 +5 +5 по сезону 1009.6 1008.8 +8.1 0.0
06 17.10 З 3
{10}
10 км 8/0
[Ac trans]
+8.0 +5.1 82 +5 +5 по сезону 1010.4 1009.6 +7.9
09 17.10 З 4 10 км 8/0
[Ac trans]
+9.6 +5.1 74 +7 +8 по сезону 1011.5 1010.7
12 17.10 З 2
{10}
10 км 8/0
[Ac trans]
+9.8 +5.5 75 +8 +9 по сезону 1010.8 1010.0
15 17.10 ЮЗ 2 10 км {дождь} 10/0
[Ac und]
+9.4 +4.1 69 +8 +8 тепло 1008.9 1008.2 0.0
18 17.10 Ю 2 4000 м слабая морось 10/10 300 м
[St]
+7.6 +6.1 90 +5 +5 по сезону 1004.7 1004.0 +10.2 0.0
21 17.10 ЮЗ 3 4000 м слабый дождь 10/10 300 м
[Sc]
+9.3 +8.2 93 +7 +7 тепло 999.9 999.1
00 18.10 З 3 4000 м дождь 10/10 300 м
[Sc]
+11.0 +9.4 90 +9 +9 тепло 998.1 997.4
03 18.10 З 3 10 км {дождь} 10/10 500 м
[Sc]
+10.5 +9.1 91 +8 +8 тепло 996.8 996.1 +7.5 4
06 18.10 ЮЗ 4 4000 м слабый дождь 10/10 300 м
[Frnb Ns]
+10.6 +9.1 90 +8 +8 тепло 995.4 994.7 +7.5 6
09 18.10 СЗ 3 4000 м слабый дождь 10/10 300 м
[Frnb Ns]
+9.4 +8.2 92 +7 +7 по сезону 996.2 995.5
12 18.10 СЗ 3 10 км слабый дождь 10/10 300 м
[Sc]
+6.6 +4.0 83 +4 +4 по сезону 1000.4 999.7
15 18.10 СЗ 3-10
{10}
4000 м слабый ливневой дождь 9/8 300 м
[Cb calv Ac trans]
+7.3 +3.2 75 +5 +5 по сезону 1003.4 1002.7 3
18 18.10 СЗ 2
{10}
10 км {ливн. осадки, дождь} 8/5 300 м
[Sc Ac trans]
+7.4 +1.9 68 +6 +6 по сезону 1005.2 1004.5 +10.5 1
21 18.10 СЗ 2 10 км 8/3 300 м
[Sc Ac trans]
+7.2 +3.5 77 +5 +5 по сезону 1006.1 1005.4
00 19.10 СЗ 3 10 км 9/8 300 м
[Sc Ac trans]
+6.7 +3.0 77 +4 +4 по сезону 1008.1 1007.4
03 19.10 СЗ 2 10 км 9/4 300 м
[Sc Ac trans]
+6.1 +3.1 81 +4 +4 по сезону 1009.7 1008.9 +6.1
06 19.10 СЗ 2 10 км 9/3 300 м
[Sc Ac trans]
+5.9 +3.0 82 +4 +4 по сезону 1011.7 1010.9 +5.5
09 19.10 СЗ 2 10 км 9/8 600 м
[Sc Ac trans]
+6.6 +2.3 74 +5 +5 по сезону 1013.9 1013.1
12 19.10 СЗ 2 10 км {дождь} 9/9 600 м
[Sc]
+6.9 +1.4 68 +5 +5 по сезону 1015.6 1014.8
15 19.10 С 2 10 км 9/9 600 м
[Sc]
+5.9 +1.2 72 +4 +4 по сезону 1017.0 1016.2 0.0
18 19.10 СЗ 1 10 км 8/0
[Ac trans]
+4.4 +1.5 81 +3 +3 по сезону 1018.3 1017.5 +7.9 0.0
21 19.10 штиль 0 10 км 9/0
[Ac trans]
+4.0 +1.7 85 +3 +3 по сезону 1019.3 1018.6
00 20.10 СЗ 1 10 км 9/0
[Ac As]
+4.4 +1.9 84 +3 +3 по сезону 1019.9 1019.1
03 20.10 С 1 10 км 10/0
[As op]
+4.3 +2.1 86 +3 +3 по сезону 1020.6 1019.9 +3.6
06 20.10 СЗ 1 10 км 9/0
[Ac As]
+4.7 +2.2 84 +3 +3 по сезону 1021.2 1020.5 +3.6
09 20.10 С 1 н/о н/о +5.5 +1.8 77 +4 +4 по сезону 1022.0 1021.2
12 20.10 С 2 10 км {ливн. осадки} 9/9 600 м
[Sc]
+6.0 +1.0 70 +4 +4 по сезону 1022.1 1021.4
15 20.10 С 2 10 км 8/8 540 м
[Sc]
+4.2 +0.3 76 +2 +2 по сезону 1022.9 1022.1 0.0
18 20.10 СЗ 1 10 км ясно +2.1 +0.3 88 0 0 прохладно 1023.7 1022.9 +6.6 0.0
21 20.10 штиль 0 10 км ясно +0.6 -0.3 94 -1 -1 прохладно 1024.1 1023.3
00 21.10 штиль 0 10 км 3/0
[Ac As]
+0.1 -0.6 95 -1 -1 прохладно 1024.1 1023.3
03 21.10 штиль 0 10 км 9/0
[Ac As]
+0.8 +0.1 95 -1 -1 прохладно 1024.2 1023.4 -0.3
06 21.10 штиль 0 10 км 8/0
[Ac trans]
+0.6 -0.7 91 -1 -1 прохладно 1024.4 1023.6 -0.3
09 21.10 СЗ 2 10 км 9/0
[Ac trans]
+4.6 -2.0 62 +2 +3 по сезону 1024.6 1023.8
12 21.10 СЗ 2 10 км 3/0
[Ac cast]
+5.1 -3.2 55 +3 +4 по сезону 1023.5 1022.7
15 21.10 С 1 10 км 6/0
[Ac trans]
+2.8 -2.2 70 +2 +2 по сезону 1022.9 1022.1
18 21.10 штиль 0 10 км 9/0
[Ac trans]
+1.6 -1.0 83 +1 +1 по сезону 1022.1 1021.3 +5.5
21 21.10 З 1 10 км 3/0
[Ac trans]
+2.0 -0.5 83 0 0 по сезону 1021.3 1020.5
00 22.10 СЗ 1 10 км 4/0
[Ac trans]
+0.9 -1.7 83 -1 -1 прохладно 1020.4 1019.6
03 22.10 СЗ 2 10 км 9/0
[Ac trans]
+1.0 -2.6 77 -2 -2 прохладно 1019.4 1018.7 +0.5
06 22.10 С 2 10 км 10/10 500 м
[Sc]
+0.6 -3.0 77 -3 -3 прохладно 1018.6 1017.8 +0.5
09 22.10 СЗ 2 10 км 10/10 570 м
[Sc]
+2.2 -2.2 73 -1 -1 прохладно 1017.9 1017.1
12 22.10 СЗ 2 10 км в посл. час дождь 9/8 360 м
[Sc Ac As]
+2.6 -0.1 82 -1 -0 прохладно 1017.5 1016.7
15 22.10 СЗ 1 10 км 9/5 300 м
[Sc Ac trans]
+2.2 -0.7 81 +1 +1 по сезону 1017.7 1016.9 0.0
18 22.10 СВ 2 4000 м слабый ливневой снег 10/10 300 м
[Cb calv]
+1.6 -1.1 82 -2 -2 прохладно 1018.8 1018.0 +2.8 0.1
21 22.10 СЗ 1 10 км {ливн. осадки} 6/4 300 м
[Sc Ac trans]
-0.1 -1.4 91 -2 -2 прохладно 1019.8 1019.0
00 23.10 штиль 0 10 км {ливн. осадки} ясно -1.1 -2.2 92 -2 -2 прохладно 1020.9 1020.1
03 23.10 штиль 0 10 км 4/0
[Ac trans]
-1.9 -2.9 93 -3 -3 прохладно 1022.1 1021.3 -2.0 0.1
06 23.10 С 1 10 км 6/0
[Ac trans]
-0.3 -1.3 93 -2 -2 прохладно 1023.5 1022.7 -2.0 <0.5
09 23.10 СВ 2 10 км 4/4 1000 м
[Cu Sc]
+3.2 -0.9 74 0 +1 по сезону 1024.9 1024.2
12 23.10 СВ 2 10 км 8/6 600 м
[Sc Ac trans]
+3.4 -1.0 73 +1 +1 по сезону 1026.1 1025.3
15 23.10 С 1 10 км 5/5 600 м
[Sc]
+1.9 -0.7 83 0 0 прохладно 1027.5 1026.7
18 23.10 С 1 10 км 6/6 600 м
[Sc]
+1.4 -0.2 89 -1 -1 прохладно 1028.9 1028.1 +4.1
21 23.10 СВ 1 10 км 6/3 600 м
[Sc Ac trans]
+0.6 -0.4 93 -1 -1 прохладно 1030.1 1029.4

 

Местоположение метеостанции Санкт-Петербург (город Санкт-Петербург, Россия): широта 59.97 долгота 30.30 высота над уровнем моря 6 м.

В архиве по умолчанию представлена погода в Санкт-Петербурге за последнюю неделю. Архивные данные за месяц целиком и за предыдущие месяцы, начиная с января 2011 года, Вы можете получить, выбрав интересующий диапазон дат из раскрывающегося списка и нажав кнопку "Ввод!".

Внимание! Время в таблицах - всемирное. Для получения местного времени необходимо прибавить поправку, которая в Санкт-Петербурге равна 3 ч.

Смотрите также архив погоды в соседних городах и на ближайших метеорологических станциях:

Погода в Воейково (город Санкт-Петербург, Россия) (22 км)
Погода в Ломоносове (город Санкт-Петербург, Россия) (29 км)
Погода в Кронштадте (город Санкт-Петербург, Россия) (30 км)
Погода в Шлиссельбурге (Ленинградская область, Россия) (39 км)
Погода в Рощино (Ленинградская область, Россия) (48 км)
Погода в Шепелево (Ленинградская область, Россия) (58 км)
Погода в Сосново (Ленинградская область, Россия) (65 км)
Погода в Белогорке (Ленинградская область, Россия) (70 км)
Погода в Волосово (Ленинградская область, Россия) (75 км)
Погода в Озерках (Ленинградская область, Россия) (77 км)

Пояснения к столбцам:

Ветер - указаны скорость ветра в м/с - средняя за 10 мин, порывы в срок и между сроками (в фигурных скобках) и направление, откуда дует ветер: С - северный, СВ - северо-восточный, В - восточный, ЮВ - юго-восточный, Ю - южный, ЮЗ - юго-западный, З - западный, СЗ - северо-западный.
Видимость - горизонтальная дальность видимости в метрах или километрах. При видимости от 1 до 10 км при отсутствии осадков обычно наблюдается дымка, при ухудшении видимости до 1 км и менее - туман. В сухую погоду видимость может ухудшаться дымом, пылью или мглою.
Явления - указаны атмосферные явления, наблюдавшиеся в срок или в последний час перед сроком; фигурными скобками обозначены явления, наблюдавшиеся между сроками (за 1-3 часа до срока); квадратными скобками обозначены град или гололедные отложения с указанием их диаметра в мм.
Облачность - указаны через наклонную черту общая и нижняя облачность в баллах и высота нижней границы облаков в метрах; квадратными скобками обозначены формы облаков: Ci - перистые, Cs - перисто-слоистые, Cc - перисто-кучевые, Ac - высококучевые, As - высокослоистые, Sc - слоисто-кучевые, Ns - слоисто-дождевые, Cu - кучевые, Cb - кучево-дождевые. Подробнее классификацию облаков см. в Атласе облаков (PDF).
T - Температура воздуха - температура, измеренная на высоте 2 м над землей.
Td - Температура точки росы - температура, при понижении до которой содержащийся в воздухе водяной пар достигнет насыщения.
f - Относительная влажность воздуха - влажноcть воздуха, измеренная на высоте 2 м над землей.
Te - Эффективная температура - температура, которую ощущает одетый по сезону человек в тени. Характеристика душности погоды. При расчете учитывается влияние влажности воздуха и скорости ветра на теплоощущения человека.
Tes - Эффективная температура на солнце - температура, которую ощущает человек, с поправкой на солнечный нагрев. Характеристика знойности погоды. Зависит от высоты солнца над горизонтом, облачности и скорости ветра. Ночью, в пасмурную погоду, а также при ветре 12 м/с и более поправка равна нулю.
P - Атмосферное давление - приведенное к уровню моря атмосферное давление.
Po - Атмосферное давление - измеренное на уровне метеостанции атмосферное давление.
Tmin - Минимальная температура - минимум температуры воздуха на высоте 2 м над землей.
Tmax - Максимальная температура - максимум температуры воздуха на высоте 2 м над землей.
R - Количество осадков - Количество выпавших осадков за период времени, мм. При наведении курсора мыши на число - период времени, за который выпало указанное количество осадков.
R24 - Количество осадков - Количество выпавших осадков за 24 часа, мм.
S - Снежный покров - Высота снежного покрова, см. При наведении курсора мыши на число - состояние снежного покрова и степень покрытия местности в баллах.